| time (UTC) | temp F | wind direction | speed MPH | gust MPH | rain 1hr in | rain 24hr in | rain mn in | humidity % | barometer mb |
| 20260903201557 | 97 | 223 | 4.0 | 9.0 | 0.00 | 0.00 | 0.00 | 51 | 1011.7 |
| 20260903200054 | 97 | 219 | 2.0 | 8.0 | 0.00 | 0.00 | 0.00 | 51 | 1012.0 |
| 20260903194552 | 96 | 202 | 6.0 | 10.0 | 0.00 | 0.00 | 0.00 | 52 | 1012.1 |
| 20260903193050 | 96 | 192 | 5.0 | 10.0 | 0.00 | 0.00 | 0.00 | 54 | 1012.3 |
| 20260903191548 | 96 | 220 | 4.0 | 12.0 | 0.00 | 0.00 | 0.00 | 55 | 1012.4 |
| 20260903190046 | 95 | 209 | 5.0 | 9.0 | 0.00 | 0.00 | 0.00 | 56 | 1012.6 |
| 20260903184546 | 95 | 157 | 5.0 | 9.0 | 0.00 | 0.00 | 0.00 | 57 | 1012.6 |
| 20260903183046 | 94 | 188 | 4.0 | 10.0 | 0.00 | 0.00 | 0.00 | 58 | 1012.7 |
| 20260903181546 | 95 | 215 | 5.0 | 12.0 | 0.00 | 0.00 | 0.00 | 57 | 1012.8 |
| 20260903180107 | 95 | 209 | 6.0 | 10.0 | 0.00 | 0.00 | 0.00 | 57 | 1013.0 |
| 20260903174541 | 96 | 236 | 3.0 | 8.0 | 0.00 | 0.00 | 0.00 | 55 | 1012.9 |
| 20260903173038 | 93 | 214 | 2.0 | 10.0 | 0.00 | 0.00 | 0.00 | 60 | 1013.1 |
| 20260903171547 | 92 | 182 | 4.0 | 9.0 | 0.00 | 0.00 | 0.00 | 62 | 1013.1 |
| 20260903170036 | 91 | 208 | 7.0 | 10.0 | 0.00 | 0.00 | 0.00 | 62 | 1013.2 |
| 20260903163041 | 92 | 211 | 5.0 | 11.0 | 0.00 | 0.00 | 0.00 | 60 | 1013.5 |
| 20260903161533 | 91 | 215 | 5.0 | 10.0 | 0.00 | 0.00 | 0.00 | 62 | 1013.6 |
| 20260903160031 | 91 | 188 | 3.0 | 10.0 | 0.00 | 0.00 | 0.00 | 64 | 1013.7 |
| 20260903154529 | 90 | 198 | 3.0 | 7.0 | 0.00 | 0.00 | 0.00 | 65 | 1013.6 |
| 20260903153029 | 89 | 186 | 5.0 | 10.0 | 0.00 | 0.00 | 0.00 | 64 | 1013.5 |
| 20260903151528 | 88 | 222 | 4.0 | 10.0 | 0.00 | 0.00 | 0.00 | 67 | 1013.6 |
| 20260903150026 | 86 | 232 | 6.0 | 11.0 | 0.00 | 0.00 | 0.00 | 68 | 1013.5 |
| 20260903144522 | 86 | 223 | 5.0 | 10.0 | 0.00 | 0.00 | 0.00 | 69 | 1013.5 |
| 20260903143025 | 85 | 211 | 5.0 | 9.0 | 0.00 | 0.00 | 0.00 | 70 | 1013.4 |
| 20260903141519 | 84 | 223 | 5.0 | 8.0 | 0.00 | 0.00 | 0.00 | 72 | 1013.4 |
| 20260903140023 | 83 | 218 | 3.0 | 10.0 | 0.00 | 0.00 | 0.00 | 73 | 1013.5 |
| 20260903134517 | 82 | 204 | 5.0 | 8.0 | 0.00 | 0.00 | 0.00 | 74 | 1013.5 |
| 20260903133017 | 81 | 201 | 4.0 | 8.0 | 0.00 | 0.00 | 0.00 | 76 | 1013.5 |
| 20260903131515 | 80 | 220 | 5.0 | 12.0 | 0.00 | 0.00 | 0.00 | 77 | 1013.5 |
| 20260903130022 | 79 | 216 | 6.0 | 11.0 | 0.00 | 0.00 | 0.00 | 78 | 1013.6 |
| 20260903124514 | 79 | 207 | 4.0 | 7.0 | 0.00 | 0.00 | 0.00 | 79 | 1013.7 |
| 20260903123018 | 78 | 192 | 3.0 | 7.0 | 0.00 | 0.00 | 0.00 | 80 | 1013.7 |
| 20260903121513 | 77 | 226 | 4.0 | 7.0 | 0.00 | 0.00 | 0.00 | 81 | 1013.5 |
| 20260903120013 | 76 | 210 | 5.0 | 7.0 | 0.00 | 0.00 | 0.00 | 82 | 1013.5 |
| 20260903114512 | 76 | 207 | 4.0 | 6.0 | 0.00 | 0.00 | 0.00 | 82 | 1013.5 |
| 20260903113023 | 77 | 176 | 1.0 | 6.0 | 0.00 | 0.00 | 0.00 | 81 | 1013.5 |
| 20260903111509 | 78 | 202 | 2.0 | 7.0 | 0.00 | 0.00 | 0.00 | 79 | 1013.5 |
| 20260903110014 | 78 | 225 | 2.0 | 7.0 | 0.00 | 0.00 | 0.00 | 78 | 1013.3 |
| 20260903104508 | 78 | 207 | 2.0 | 6.0 | 0.00 | 0.00 | 0.00 | 79 | 1013.3 |
| 20260903103007 | 77 | 198 | 1.0 | 5.0 | 0.00 | 0.00 | 0.00 | 81 | 1013.2 |
| 20260903101507 | 76 | 191 | 2.0 | 4.0 | 0.00 | 0.00 | 0.00 | 81 | 1013.2 |
| 20260903100004 | 77 | 200 | 0.0 | 4.0 | 0.00 | 0.00 | 0.00 | 80 | 1013.3 |
| 20260903094503 | 79 | 203 | 3.0 | 5.0 | 0.00 | 0.00 | 0.00 | 77 | 1013.3 |
| 20260903093200 | 79 | 214 | 3.0 | 5.0 | 0.00 | 0.00 | 0.00 | 76 | 1013.3 |
| 20260903091558 | 80 | 208 | 2.0 | 7.0 | 0.00 | 0.00 | 0.00 | 75 | 1013.3 |
| 20260903090057 | 80 | 213 | 3.0 | 6.0 | 0.00 | 0.00 | 0.00 | 75 | 1013.2 |
| 20260903084556 | 80 | 206 | 3.0 | 7.0 | 0.00 | 0.00 | 0.00 | 75 | 1013.1 |
| 20260903083053 | 80 | 214 | 4.0 | 7.0 | 0.00 | 0.00 | 0.00 | 74 | 1013.2 |
| 20260903081554 | 81 | 206 | 3.0 | 9.0 | 0.00 | 0.00 | 0.00 | 74 | 1013.1 |
| 20260903080052 | 81 | 200 | 3.0 | 9.0 | 0.00 | 0.00 | 0.00 | 74 | 1013.2 |
| 20260903074605 | 81 | 193 | 4.0 | 8.0 | 0.00 | 0.00 | 0.00 | 73 | 1013.2 |
| 20260903073049 | 81 | 208 | 3.0 | 7.0 | 0.00 | 0.00 | 0.00 | 73 | 1013.2 |
| 20260903071553 | 81 | 213 | 3.0 | 7.0 | 0.00 | 0.00 | 0.00 | 73 | 1013.3 |
| 20260903070047 | 82 | 206 | 3.0 | 6.0 | 0.00 | 0.00 | 0.00 | 71 | 1013.3 |
| 20260903064546 | 83 | 211 | 3.0 | 6.0 | 0.00 | 0.00 | 0.00 | 70 | 1013.2 |
| 20260903063045 | 82 | 219 | 4.0 | 8.0 | 0.00 | 0.00 | 0.00 | 71 | 1013.3 |
| 20260903061552 | 82 | 215 | 5.0 | 8.0 | 0.00 | 0.00 | 0.00 | 70 | 1013.2 |
| 20260903060043 | 83 | 211 | 5.0 | 9.0 | 0.00 | 0.00 | 0.00 | 70 | 1013.2 |
| 20260903054547 | 83 | 197 | 3.0 | 9.0 | 0.00 | 0.00 | 0.00 | 69 | 1013.1 |
| 20260903053059 | 83 | 227 | 4.0 | 9.0 | 0.00 | 0.00 | 0.00 | 68 | 1013.1 |
| 20260903051536 | 84 | 215 | 3.0 | 10.0 | 0.00 | 0.00 | 0.00 | 67 | 1013.1 |
| 20260903050035 | 84 | 219 | 5.0 | 8.0 | 0.00 | 0.00 | 0.00 | 66 | 1012.9 |
| 20260903044545 | 84 | 213 | 4.0 | 7.0 | 0.00 | 0.00 | 0.00 | 65 | 1012.8 |
| 20260903043033 | 84 | 205 | 3.0 | 7.0 | 0.00 | 0.00 | 0.00 | 67 | 1012.7 |
| 20260903041534 | 84 | 212 | 4.0 | 6.0 | 0.00 | 0.00 | 0.00 | 66 | 1012.7 |
| 20260903040034 | 85 | 215 | 2.0 | 5.0 | 0.00 | 0.00 | 0.00 | 65 | 1012.7 |
| 20260903034533 | 85 | 216 | 3.0 | 5.0 | 0.00 | 0.00 | 0.00 | 66 | 1012.6 |
| 20260903033032 | 85 | 219 | 2.0 | 5.0 | 0.00 | 0.00 | 0.00 | 67 | 1012.6 |
| 20260903031532 | 86 | 210 | 3.0 | 5.0 | 0.00 | 0.00 | 0.00 | 67 | 1012.7 |
| 20260903030039 | 86 | 219 | 3.0 | 6.0 | 0.00 | 0.00 | 0.00 | 66 | 1012.7 |
| 20260903024539 | 86 | 211 | 3.0 | 6.0 | 0.00 | 0.00 | 0.00 | 68 | 1012.5 |
| 20260903023030 | 87 | 211 | 3.0 | 4.0 | 0.00 | 0.00 | 0.00 | 68 | 1012.6 |
| 20260903021633 | 87 | 202 | 2.0 | 4.0 | 0.00 | 0.00 | 0.00 | 67 | 1012.6 |
| 20260903020033 | 87 | 186 | 2.0 | 5.0 | 0.00 | 0.00 | 0.00 | 68 | 1012.6 |
| 20260903014529 | 87 | 190 | 2.0 | 5.0 | 0.00 | 0.00 | 0.00 | 67 | 1012.5 |
| 20260903013029 | 88 | 209 | 4.0 | 8.0 | 0.00 | 0.00 | 0.00 | 66 | 1012.4 |
| 20260903011539 | 88 | 182 | 3.0 | 6.0 | 0.00 | 0.00 | 0.00 | 67 | 1012.2 |
| 20260903010027 | 88 | 186 | 2.0 | 4.0 | 0.00 | 0.00 | 0.00 | 68 | 1012.1 |
| 20260903004531 | 89 | 182 | 3.0 | 5.0 | 0.00 | 0.00 | 0.00 | 67 | 1012.1 |
| 20260903003026 | 89 | 183 | 2.0 | 4.0 | 0.00 | 0.00 | 0.00 | 68 | 1012.0 |
| 20260903001525 | 90 | 182 | 0.0 | 0.0 | 0.00 | 0.00 | 0.00 | 69 | 1012.1 |
| 20260903000025 | 91 | 182 | 0.0 | 3.0 | 0.00 | 0.00 | 0.00 | 66 | 1012.1 |
| 20260902234524 | 92 | 212 | 0.0 | 1.0 | 0.00 | 0.00 | 0.00 | 62 | 1012.2 |
| 20260902233030 | 93 | 212 | 0.0 | 3.0 | 0.00 | 0.00 | 0.00 | 58 | 1012.1 |
| 20260902231523 | 95 | 217 | 1.0 | 4.0 | 0.00 | 0.00 | 0.00 | 55 | 1012.2 |
| 20260902230022 | 95 | 218 | 3.0 | 7.0 | 0.00 | 0.00 | 0.00 | 53 | 1012.2 |
| 20260902224521 | 95 | 200 | 4.0 | 7.0 | 0.00 | 0.00 | 0.00 | 52 | 1012.2 |
| 20260902223021 | 96 | 211 | 3.0 | 6.0 | 0.00 | 0.00 | 0.00 | 51 | 1012.3 |
| 20260902221520 | 97 | 235 | 2.0 | 8.0 | 0.00 | 0.00 | 0.00 | 50 | 1012.3 |
| 20260902220019 | 96 | 211 | 3.0 | 8.0 | 0.00 | 0.00 | 0.00 | 51 | 1012.4 |
| 20260902214519 | 97 | 202 | 4.0 | 7.0 | 0.00 | 0.00 | 0.00 | 51 | 1012.4 |
| 20260902213019 | 97 | 185 | 2.0 | 8.0 | 0.00 | 0.00 | 0.00 | 51 | 1012.4 |
| 20260902211517 | 96 | 174 | 5.0 | 11.0 | 0.00 | 0.00 | 0.00 | 52 | 1012.5 |
| 20260902210015 | 97 | 191 | 5.0 | 11.0 | 0.00 | 0.00 | 0.00 | 53 | 1012.7 |
| 20260902204533 | 96 | 217 | 4.0 | 7.0 | 0.00 | 0.00 | 0.00 | 55 | 1012.7 |
| 20260902203012 | 96 | 213 | 4.0 | 10.0 | 0.00 | 0.00 | 0.00 | 54 | 1012.9 |